This demonstration page uses our WeatherBlox Daily Observations layout. Learn more.

Left ArrowRight Arrow

Hourly Observations for February 9, 2022

Temp ( °F °C ) Dew Point ( °F °C ) Humidity (%) Winds ( mph kmh ) Pressure ( in mb ) Visibility ( mi km ) Precip ( " mm )
12:56 am 00:56 Mostly Cloudy 39 3.9 16 -9.1 38 38 WNW 8 13 29.95 1014 10 16 0.00 0.00
1:56 am 01:56 Mostly Cloudy 38 3.5 16 -8.8 41 41 WNW 7 11 29.95 1014 10 16 0.00 0.00
2:56 am 02:56 Partly Cloudy 37 2.6 18 -7.9 46 46 WNW 7 11 29.95 1014 10 16 0.00 0.00
3:56 am 03:56 Mostly Cloudy 37 2.8 18 -8 45 45 WNW 6 9 29.94 1014 10 16 0.00 0.00
4:56 am 04:56 Mostly Cloudy 39 4.1 16 -9 38 38 W 7 11 29.92 1013 10 16 0.00 0.00
5:56 am 05:56 Mostly Cloudy 39 4.1 17 -8.6 39 39 W 9 15 29.93 1013 10 16 0.00 0.00
6:56 am 06:56 Cloudy 40 4.4 19 -7.4 42 42 WNW 9 15 29.95 1014 10 16 0.00 0.00
7:56 am 07:56 Mostly Sunny 41 5 19 -7.2 41 41 WNW 13 20 29.96 1015 10 16 0.00 0.00
8:56 am 08:56 Sunny 45 7 21 -6 39 39 NW 17 28 29.98 1015 10 16 0.00 0.00
9:56 am 09:56 undefined 45 7.4 22 -5.7 39 39 NW 23 37 29.98 1015 7 11 0.00 0.00
10:56 am 10:56 Mostly Sunny 47 8.2 23 -4.9 39 39 NW 24 39 29.99 1016 10 16 0.00 0.00
11:56 am 11:56 Mostly Cloudy 47 8.3 23 -5.2 38 38 NNW 20 31 30.00 1016 7 11 0.00 0.00
12:56 pm 12:56 undefined 48 8.9 23 -5 37 37 NW 17 28 29.99 1016 10 16 0.00 0.00
1:56 pm 13:56 Partly Cloudy 49 9.4 22 -5.3 35 35 WNW 20 31 29.97 1015 8 13 0.00 0.00
2:56 pm 14:56 Partly Cloudy 49 9.4 18 -7.8 29 29 NNW 16 26 29.98 1015 10 16 0.00 0.00
3:56 pm 15:56 Mostly Sunny 48 8.8 20 -6.6 33 33 WNW 16 26 29.99 1016 10 16 0.00 0.00
4:56 pm 16:56 Mostly Sunny 48 8.8 17 -8.3 29 29 NW 16 26 30.00 1016 10 16 0.00 0.00
5:56 pm 17:56 Clear 44 6.9 18 -7.9 34 34 NW 12 19 30.01 1016 10 16 0.00 0.00
6:56 pm 18:56 Mostly Cloudy 40 4.7 17 -8.1 39 39 WNW 5 7 30.02 1017 10 16 0.00 0.00
7:56 pm 19:56 Clear 40 4.3 19 -7.2 43 43 NW 8 13 30.05 1018 10 16 0.00 0.00
8:56 pm 20:56 Clear 38 3.1 19 -7.4 46 46 NNW 6 9 30.06 1018 10 16 0.00 0.00
9:56 pm 21:56 Mostly Clear 34 1.3 19 -7.5 52 52 WNW 7 11 30.09 1019 10 16 0.00 0.00
10:56 pm 22:56 Clear 32 -0.1 19 -7.2 59 59 NW 8 13 30.09 1019 10 16 0.00 0.00
11:56 pm 23:56 Clear 31 -0.5 20 -6.9 62 62 NNW 9 15 30.11 1020 10 16 0.00 0.00

Powered by AerisWeather